Regional Weather Roundup
Issued by NWS

Home | Current Version | Previous Version | Text Only | Print | Product List | Glossary Off
Versions: 1 2 3 4 5 6 7 8 9 10 11 12 13 14 15 16 17 18 19 20 21 22 23 24 25 26 27 28 29 30 31 32 33 34 35 36 37 38 39 40 41 42 43 44 45 46 47 48 49 50

000
ASUS43 KLMK 191410
RWRKY
KENTUCKY REGIONAL WEATHER ROUNDUP
NATIONAL WEATHER SERVICE LOUISVILLE KY
1000 AM EDT SAT AUG 19 2017

NOTE "FAIR" INDICATES FEW OR NO CLOUDS BELOW 12,000 FEET
WITH NO SIGNIFICANT WEATHER AND/OR OBSTRUCTIONS TO VISIBILITY.

KYZ001>023-026-027-061>063-070>075-191500-
WESTERN AND SOUTH CENTRAL KENTUCKY

CITY           SKY/WX    TMP DP  RH WIND       PRES   REMARKS
PADUCAH        SUNNY     80  68  66 SW7       29.95S
HENDERSON      CLOUDY    70  68  93 MISG      29.98R
OWENSBORO      LGT RAIN  72  69  90 W9        29.99R
HOPKINSVILLE   MOSUNNY   77  68  72 SW5       29.99S
BOWLING GREEN  CLOUDY    78  70  76 W6        30.01S
GLASGOW        SUNNY     76  67  73 SW3       30.01S
$$

KYZ024-025-028>034-038-045-046-053-191500-
NORTH CENTRAL KENTUCKY

CITY           SKY/WX    TMP DP  RH WIND       PRES   REMARKS
LOUISVILLE/SDF PTSUNNY   76  67  73 S8        29.96S
LOUISVILLE/LOU MOSUNNY   74  69  85 SE7       29.97S
FORT KNOX      MOSUNNY   77  67  72 S6        29.97F
$$

KYZ035>037-039>044-047>052-055>060-089>105-191500-
NORTHEAST KENTUCKY

CITY           SKY/WX    TMP DP  RH WIND       PRES   REMARKS
LEXINGTON      SUNNY     76  66  71 S6        30.00F
COVINGTON      CLOUDY    73  70  90 S7        29.96S
FRANKFORT      SUNNY     77  66  68 S7        29.98F
$$

KYZ054-064>069-076>088-106>120-191500-
SOUTHEAST KENTUCKY

CITY           SKY/WX    TMP DP  RH WIND       PRES   REMARKS
JACKSON        CLOUDY    71  66  84 VRB3      30.04S
LONDON         MOSUNNY   70  65  84 S5        30.04F
SOMERSET       SUNNY     70  68  94 CALM      30.04S
MIDDLESBORO    CLOUDY    65  65 100 CALM      30.07S
MONTICELLO     CLOUDY    76  68  76 NW8       30.05S
$$





USA.gov is the U.S. government's official web portal to all federal, state and local government web resources and services.